When you browse on this site, cookies collect data to enhance your experience and personalize the content and advertising you see.
Visit our Privacy Policy to learn more. By continuing to use the site, you agree to this use of cookies and data.
  • In United Kingdom
  • List of Countries
  • For 7 days
  • Water Temperature
  • Satellite Maps
  • Weather Map
  • Weather Widgets
  • user-avatar
    Login

    Hourly Weather Kaprun

    Today, 24 April, Wednesday

    Time Temperature Precipitation Wind Pressure Humidity
    00:00 0°C° 0 mm 4 mps 589 mmHg 85%
    01:00 0°C° 0 mm 5 mps 590 mmHg 85%
    02:00 0°C° 0 mm 5 mps 590 mmHg 86%
    03:00 0°C° 0 mm 5 mps 590 mmHg 86%
    04:00 0°C° 0 mm 4 mps 590 mmHg 87%
    05:00 +1°C° 0 mm 4 mps 591 mmHg 86%
    06:00 +1°C° 0 mm 5 mps 591 mmHg 84%
    07:00 +2°C° 0 mm 5 mps 591 mmHg 83%
    08:00 +3°C° 0 mm 5 mps 592 mmHg 80%
    09:00 +5°C° 0 mm 5 mps 593 mmHg 77%
    10:00 +6°C° 0 mm 5 mps 593 mmHg 74%
    11:00 +6°C° 0 mm 5 mps 593 mmHg 72%
    12:00 +7°C° 0 mm 5 mps 594 mmHg 71%
    13:00 +7°C° 0 mm 5 mps 594 mmHg 69%
    14:00 +7°C° 0 mm 5 mps 594 mmHg 69%
    15:00 +7°C° 0 mm 5 mps 594 mmHg 70%
    16:00 +7°C° 0 mm 5 mps 594 mmHg 70%
    17:00 +5°C° 0 mm 5 mps 593 mmHg 75%
    18:00 +3°C° 0 mm 5 mps 592 mmHg 79%
    19:00 +2°C° 0 mm 5 mps 592 mmHg 83%
    20:00 +1°C° 0 mm 4 mps 592 mmHg 83%
    21:00 +1°C° 0 mm 4 mps 593 mmHg 84%
    22:00 +1°C° 0 mm 4 mps 593 mmHg 85%
    23:00 +1°C° 0 mm 4 mps 594 mmHg 85%

    Tomorrow, 25 April, Thursday

    Time Temperature Precipitation Wind Pressure Humidity
    00:00 +2°C° 0 mm 3 mps 594 mmHg 86%
    01:00 +1°C° 0 mm 3 mps 595 mmHg 86%
    02:00 0°C° 0 mm 4 mps 595 mmHg 86%
    03:00 0°C° 0 mm 4 mps 595 mmHg 87%
    04:00 -1°C° 0 mm 4 mps 595 mmHg 87%
    05:00 0°C° 0 mm 4 mps 595 mmHg 84%
    06:00 +1°C° 0 mm 5 mps 595 mmHg 81%
    07:00 +1°C° 0 mm 5 mps 595 mmHg 77%
    08:00 +3°C° 0 mm 5 mps 596 mmHg 70%
    09:00 +6°C° 0 mm 5 mps 597 mmHg 63%
    10:00 +7°C° 0 mm 5 mps 597 mmHg 56%
    11:00 +8°C° 0 mm 5 mps 597 mmHg 53%
    12:00 +9°C° 0 mm 5 mps 598 mmHg 50%
    13:00 +9°C° 0 mm 5 mps 598 mmHg 47%
    14:00 +9°C° 0 mm 5 mps 597 mmHg 49%
    15:00 +8°C° 0 mm 5 mps 597 mmHg 52%
    16:00 +8°C° 0 mm 5 mps 597 mmHg 54%
    17:00 +6°C° 0 mm 5 mps 596 mmHg 62%
    18:00 +5°C° 0 mm 4 mps 595 mmHg 70%
    19:00 +3°C° 0 mm 4 mps 595 mmHg 78%
    20:00 +3°C° 0 mm 4 mps 595 mmHg 80%
    21:00 +3°C° 0 mm 4 mps 595 mmHg 82%
    22:00 +1°C° 0 mm 5 mps 595 mmHg 84%
    23:00 +1°C° 0 mm 4 mps 595 mmHg 84%

    Day after tomorrow, 26 April, Friday

    Time Temperature Precipitation Wind Pressure Humidity
    00:00 +1°C° 0 mm 4 mps 595 mmHg 84%
    01:00 +1°C° 0 mm 4 mps 595 mmHg 84%
    02:00 +1°C° 0 mm 4 mps 595 mmHg 84%
    03:00 +1°C° 0 mm 4 mps 595 mmHg 83%
    04:00 +1°C° 0 mm 4 mps 595 mmHg 83%
    05:00 +1°C° 0 mm 4 mps 595 mmHg 81%
    06:00 +3°C° 0 mm 4 mps 595 mmHg 79%
    07:00 +4°C° 0 mm 4 mps 595 mmHg 76%
    08:00 +5°C° 0 mm 4 mps 596 mmHg 70%
    09:00 +7°C° 0 mm 4 mps 596 mmHg 63%
    10:00 +8°C° 0 mm 5 mps 596 mmHg 56%
    11:00 +9°C° 0 mm 5 mps 596 mmHg 54%
    12:00 +10°C° 0 mm 5 mps 596 mmHg 52%
    13:00 +10°C° 0 mm 5 mps 596 mmHg 50%
    14:00 +8°C° 0.6 mm 4 mps 596 mmHg 61%
    15:00 +7°C° 0.6 mm 3 mps 595 mmHg 73%
    16:00 +6°C° 0.6 mm 2 mps 594 mmHg 84%
    17:00 +4°C° 4.3 mm 2 mps 594 mmHg 89%
    18:00 +1°C° 4.3 mm 3 mps 593 mmHg 93%
    19:00 -1°C° 4.3 mm 3 mps 593 mmHg 97%
    20:00 -2°C° 1.9 mm 3 mps 593 mmHg 96%
    21:00 -3°C° 1.9 mm 2 mps 593 mmHg 96%
    22:00 -4°C° 1.9 mm 2 mps 593 mmHg 96%
    23:00 -4°C° 0.8 mm 2 mps 593 mmHg 96%

    27 April, Saturday

    Time Temperature Precipitation Wind Pressure Humidity
    00:00 -5°C° 0.8 mm 2 mps 593 mmHg 96%
    01:00 -5°C° 0.8 mm 2 mps 593 mmHg 97%
    02:00 -5°C° 1.2 mm 2 mps 593 mmHg 97%
    03:00 -5°C° 1.2 mm 2 mps 593 mmHg 97%
    04:00 -5°C° 1.2 mm 2 mps 593 mmHg 97%
    05:00 -5°C° 0.4 mm 2 mps 593 mmHg 95%
    06:00 -5°C° 0.4 mm 2 mps 594 mmHg 94%
    07:00 -4°C° 0.4 mm 2 mps 594 mmHg 92%
    08:00 -3°C° 0.2 mm 2 mps 594 mmHg 92%
    09:00 0°C° 0.2 mm 1 mps 595 mmHg 92%
    10:00 +1°C° 0.2 mm 1 mps 595 mmHg 91%
    11:00 +2°C° 0.2 mm 1 mps 595 mmHg 91%
    12:00 +1°C° 0.2 mm 2 mps 595 mmHg 90%
    13:00 +2°C° 0.2 mm 2 mps 595 mmHg 89%
    14:00 +2°C° 0.2 mm 2 mps 595 mmHg 90%
    15:00 +2°C° 0.2 mm 2 mps 594 mmHg 90%
    16:00 +2°C° 0.2 mm 2 mps 594 mmHg 91%
    17:00 +1°C° 0.8 mm 2 mps 594 mmHg 93%
    18:00 -1°C° 0.8 mm 2 mps 594 mmHg 95%
    19:00 -1°C° 0.8 mm 2 mps 594 mmHg 97%
    20:00 -2°C° 1.8 mm 2 mps 594 mmHg 97%
    21:00 -2°C° 1.8 mm 2 mps 594 mmHg 97%
    22:00 -3°C° 1.8 mm 2 mps 594 mmHg 97%
    23:00 -3°C° 1.5 mm 2 mps 594 mmHg 96%

    28 April, Sunday

    Time Temperature Precipitation Wind Pressure Humidity
    00:00 -4°C° 1.5 mm 2 mps 594 mmHg 96%
    01:00 -3°C° 1.5 mm 1 mps 593 mmHg 96%
    02:00 -3°C° 1 mm 1 mps 593 mmHg 96%
    03:00 -3°C° 1 mm 1 mps 593 mmHg 96%
    04:00 -3°C° 1 mm 1 mps 592 mmHg 96%
    05:00 -3°C° 0.6 mm 1 mps 593 mmHg 96%
    06:00 -3°C° 0.6 mm 1 mps 593 mmHg 96%
    07:00 -2°C° 0.6 mm 1 mps 593 mmHg 95%
    08:00 -4°C° 0.7 mm 2 mps 593 mmHg 96%
    09:00 -3°C° 0.7 mm 2 mps 593 mmHg 96%
    10:00 -3°C° 0.7 mm 2 mps 593 mmHg 96%
    11:00 -3°C° 0.9 mm 2 mps 593 mmHg 97%
    12:00 -2°C° 0.9 mm 2 mps 594 mmHg 97%
    13:00 -2°C° 0.9 mm 2 mps 594 mmHg 98%
    14:00 -2°C° 0.6 mm 2 mps 594 mmHg 98%
    15:00 -2°C° 0.6 mm 2 mps 594 mmHg 98%
    16:00 -2°C° 0.6 mm 2 mps 593 mmHg 98%
    17:00 -2°C° 0.4 mm 2 mps 593 mmHg 98%
    18:00 -2°C° 0.4 mm 2 mps 593 mmHg 98%
    19:00 -2°C° 0.4 mm 2 mps 593 mmHg 98%
    20:00 -3°C° 0.3 mm 2 mps 594 mmHg 98%
    21:00 -3°C° 0.3 mm 2 mps 594 mmHg 98%
    22:00 -3°C° 0.3 mm 2 mps 594 mmHg 98%
    23:00 -3°C° 0.2 mm 2 mps 594 mmHg 98%

    29 April, Monday

    Time Temperature Precipitation Wind Pressure Humidity
    00:00 -3°C° 0.2 mm 2 mps 594 mmHg 98%
    01:00 -4°C° 0.2 mm 2 mps 594 mmHg 98%
    02:00 -4°C° 0.1 mm 2 mps 594 mmHg 98%
    03:00 -4°C° 0.1 mm 2 mps 594 mmHg 98%
    04:00 -4°C° 0.1 mm 2 mps 593 mmHg 98%
    05:00 -3°C° 0.1 mm 2 mps 594 mmHg 98%
    06:00 -3°C° 0.1 mm 2 mps 594 mmHg 98%
    07:00 -3°C° 0.1 mm 2 mps 594 mmHg 98%
    08:00 -2°C° 0.1 mm 2 mps 594 mmHg 98%
    09:00 -1°C° 0.1 mm 2 mps 594 mmHg 98%
    10:00 -1°C° 0.1 mm 3 mps 594 mmHg 98%
    11:00 +1°C° 0.1 mm 2 mps 594 mmHg 97%
    12:00 +1°C° 0.1 mm 2 mps 594 mmHg 96%
    13:00 +2°C° 0.1 mm 2 mps 594 mmHg 95%
    14:00 +2°C° 0.1 mm 2 mps 594 mmHg 95%
    15:00 +2°C° 0.1 mm 2 mps 594 mmHg 94%
    16:00 +2°C° 0.1 mm 2 mps 594 mmHg 94%
    17:00 +1°C° 0.1 mm 2 mps 594 mmHg 95%
    18:00 +1°C° 0.1 mm 2 mps 594 mmHg 95%
    19:00 -1°C° 0.1 mm 2 mps 593 mmHg 96%
    20:00 0°C° 0.1 mm 1 mps 593 mmHg 96%
    21:00 0°C° 0.1 mm 1 mps 594 mmHg 96%
    22:00 -1°C° 0.1 mm 1 mps 594 mmHg 96%
    23:00 -1°C° 0 mm 1 mps 593 mmHg 95%
    Show more